Location: Harbor Hills
(33.7803°N, 118.3148°W)
Time: 18:04:02
(UTC+00:00)

DMSP B5D2-2 - Pass Details

Date: 05 August 2024
Orbit: 787 x 802 km, 98.3° (Epoch: 06 September)

Event Time Altitude Azimuth Distance (km) Brightness Sun altitude
Rises 12:05:22 0° 180° (S) 3,277 7.0 -12.7°
Reaches altitude 10° 12:07:45 10° 185° (S) 2,349 6.2 -12.2°
Maximum altitude 12:12:47 50° 260° (W) 1,003 4.2 -11.3°
Drops below altitude 10° 12:17:49 10° 336° (NNW) 2,355 6.6 -10.4°
Sets 12:20:13 0° 341° (NNW) 3,286 7.4 -10.0°
